Theta_e
307 307 306 304 307 307 306 309 306 308 309 308 309 309 309 310 310 311 312 313 314 314 307 306 310 310 310 310 311 309 307 306 306 306 309 310 310 313 312 313 315 316 317 317 318
307 305 307 306 306 305 307 306 308 308 307 305 306 308 308 308 306 303 305 308 312 311 313 305 307 310 312 312 311 309 306 306 305 305 307 310 311 311 313 313 315 316 317 317 318
307 307 306 305 305 305 305 306 306 306 307 308 307 305 302 302 301 301 304 303 306 311 314 310 306 311 311 311 311 308 307 305 309 309 310 310 311 311 311 312 314 315 316 317 318
304 308 308 306 306 305 304 305 306 305 306 307 308 306 306 303 298 306 309 307 306 308 313 316 308 313 309 309 310 309 308 307 309 311 311 310 310 310 310 312 313 314 314 317 317
307 305 308 308 308 307 305 304 304 304 304 306 308 307 306 303 301 310 312 313 311 308 311 316 310 312 310 308 309 308 308 309 310 310 310 310 310 310 311 312 312 313 312 313 315
304 306 306 305 307 308 307 305 304 303 302 305 306 308 306 302 303 301 302 312 312 311 309 314 313 311 310 309 308 309 309 309 310 310 310 310 309 310 312 312 313 313 314 313 313
304 305 307 306 305 307 307 306 304 304 303 304 305 306 307 306 304 301 301 311 312 312 310 312 312 312 311 309 310 310 310 308 307 309 309 310 309 307 311 311 311 312 313 313 314
303 304 305 305 306 304 307 305 306 304 303 302 303 304 305 306 306 306 302 306 312 313 312 310 310 310 310 309 308 309 309 310 307 308 310 310 308 306 309 310 311 311 311 312 313
303 303 303 304 305 306 305 307 306 306 302 303 303 303 304 305 306 305 304 302 309 312 313 312 308 307 307 306 307 305 308 308 309 307 308 308 309 308 308 309 309 309 310 310 310
300 301 301 302 304 304 306 306 306 306 303 303 304 303 302 305 305 305 304 304 308 311 311 311 309 305 302 305 311 307 308 306 307 307 306 307 307 306 308 308 308 309 310 310 311
299 299 300 300 301 303 304 306 307 306 304 303 304 302 304 304 304 304 304 303 307 310 309 309 310 309 306 304 304 304 306 307 305 305 307 306 305 306 307 306 305 308 309 310 310
298 298 298 299 301 302 303 305 306 305 304 303 303 303 303 304 304 304 303 303 307 307 305 308 310 307 304 304 304 304 306 306 306 305 306 305 305 304 305 306 307 308 309 310 311
298 298 298 298 300 300 302 305 306 303 302 302 303 302 302 303 303 303 304 303 304 305 307 306 304 304 305 304 305 304 305 304 305 305 304 303 304 303 303 304 306 306 308 308 309
297 297 297 297 299 300 302 302 303 301 305 301 301 302 303 302 302 303 303 303 304 304 303 305 303 304 305 306 305 308 303 303 305 306 305 302 303 300 302 301 302 304 305 306 306
296 297 296 297 299 301 300 300 302 299 305 302 300 302 302 302 302 302 303 304 303 303 303 304 302 304 306 305 304 305 303 303 304 305 306 305 305 300 301 302 301 301 304 305 306
296 296 296 296 297 297 300 301 301 300 304 302 300 300 302 302 301 302 305 305 304 303 303 302 302 302 302 303 304 303 303 304 303 304 307 304 304 301 300 302 302 304 306 307 307
295 295 296 295 296 296 298 299 301 302 301 302 301 300 301 301 302 301 304 305 304 305 305 304 304 303 302 304 303 304 305 307 306 307 304 301 302 302 299 300 301 302 305 305 306
295 295 296 295 295 295 296 298 300 298 301 300 300 301 301 301 302 303 303 305 303 300 302 304 305 303 301 303 305 306 304 304 303 306 304 302 304 304 301 303 304 304 304 305 305
295 294 296 295 295 295 297 298 299 296 301 301 301 301 301 301 301 302 302 303 304 300 300 302 301 301 301 301 303 306 308 302 302 294 302 303 302 302 302 303 303 304 304 305 305
294 294 294 295 294 295 296 297 299 299 301 301 301 300 300 301 301 301 301 301 301 301 299 300 302 300 302 302 302 303 303 306 303 301 302 300 303 302 302 302 302 301 302 304 304
293 294 294 295 294 295 295 294 297 298 301 302 301 299 298 301 300 301 301 299 301 301 299 298 299 300 301 302 303 303 303 303 302 302 302 299 299 297 300 301 300 301 302 302 303
293 294 294 295 295 294 293 293 296 296 299 301 301 300 298 300 298 299 300 299 301 301 303 300 301 299 299 298 299 301 303 303 303 302 302 302 299 299 298 299 302 301 301 302 303
293 293 293 294 293 293 286 288 293 295 297 299 300 300 298 299 298 299 298 298 299 301 303 302 301 300 297 300 295 296 301 303 303 304 304 303 300 300 298 299 300 300 302 302 302
292 292 293 294 292 290 282 283 289 294 294 294 299 299 299 299 296 297 299 298 299 301 302 301 292 296 298 298 298 298 298 301 302 304 304 305 303 302 301 300 299 300 301 302 302
292 290 291 293 290 289 289 288 291 291 294 296 299 300 300 297 296 293 298 298 298 301 301 295 292 291 292 297 298 299 300 299 298 301 301 301 299 300 299 298 298 299 299 300 301
290 290 291 285 291 291 290 286 291 291 294 295 298 299 299 296 297 296 298 298 301 299 297 295 286 286 290 296 297 298 299 300 300 300 296 297 299 299 297 296 295 295 295 294 295
292 292 292 289 289 292 291 289 293 293 295 295 296 297 300 297 297 298 299 299 299 301 294 290 288 285 286 285 293 292 296 298 298 298 298 300 299 295 295 295 294 293 293 292 291
Wind_Speed
16 17 14 14 15 13 13 11 18 18 18 16 17 19 19 19 20 20 22 12 8 7 6 9 10 10 12 11 8 7 2 4 6 8 5 4 4 3 3 3 6 9 5 4 4
20 16 19 17 17 16 13 13 13 13 15 17 19 19 20 21 22 25 22 19 15 11 12 9 12 12 8 7 7 5 4 9 6 5 4 4 4 3 2 3 5 7 9 7 6
22 20 20 19 19 16 17 18 17 14 15 14 12 13 14 15 16 7 11 16 22 19 14 11 9 14 7 7 8 6 6 4 4 8 3 2 2 3 3 3 7 7 8 9 11
26 25 23 22 21 18 14 20 18 18 15 13 12 10 10 9 5 4 4 8 13 25 18 14 11 10 6 6 7 3 8 5 3 6 4 2 3 3 6 3 4 6 4 7 11
24 26 26 25 26 21 17 18 18 21 20 16 12 11 10 8 13 6 4 1 4 20 21 17 15 9 6 6 6 4 4 6 14 4 5 4 6 4 12 11 7 6 5 4 8
31 30 29 29 28 27 24 21 17 16 14 17 16 13 14 8 12 14 11 6 6 11 19 18 9 14 7 4 7 5 8 9 4 6 6 3 4 2 13 13 17 17 17 14 13
29 30 28 28 29 27 24 23 22 19 12 17 17 16 20 24 9 5 9 14 12 10 11 19 15 13 7 3 9 2 3 3 6 8 5 3 8 10 37 27 22 17 13 18 18
32 30 29 28 30 29 27 25 25 23 12 15 17 21 16 10 13 21 14 16 14 12 8 10 16 11 5 4 3 4 1 2 1 9 6 14 17 6 25 28 31 31 29 28 23
28 28 29 27 27 28 28 26 26 24 19 18 17 19 12 9 20 22 20 18 16 12 9 9 13 6 6 6 2 4 3 4 5 14 3 8 4 4 10 17 19 21 20 21 24
30 29 31 28 26 25 24 26 26 25 19 19 17 8 21 11 17 17 12 22 17 17 11 10 6 4 2 5 12 6 4 4 4 1 2 5 9 9 10 4 9 11 14 16 19
29 29 29 28 29 27 22 22 18 14 32 15 12 8 1 23 7 7 13 21 15 16 10 8 6 14 14 8 2 6 4 5 3 1 2 6 7 9 25 15 14 27 31 31 29
29 27 29 28 26 23 24 31 25 9 8 33 16 29 11 12 9 10 13 16 15 11 8 4 22 8 7 8 5 4 5 4 3 2 0 5 12 10 12 15 23 27 28 28 28
27 27 26 25 22 30 30 33 31 20 7 15 44 27 37 19 7 17 19 15 6 11 17 8 1 11 8 5 9 5 11 4 2 3 1 5 11 6 9 15 22 29 34 33 33
28 26 25 23 23 27 29 31 31 20 8 10 19 21 22 15 10 26 24 16 6 13 8 10 6 7 4 11 9 11 7 6 4 3 4 1 8 5 3 7 4 15 20 27 28
28 25 27 24 17 16 23 29 21 14 6 13 11 12 30 22 12 24 30 19 8 7 7 8 10 10 7 7 8 5 8 10 6 5 2 5 3 6 3 6 10 11 17 15 10
29 28 25 27 28 30 11 13 21 5 8 7 8 11 15 25 3 12 17 11 13 6 3 4 1 7 8 5 11 7 6 5 4 4 7 10 10 4 5 7 7 2 1 6 7
29 29 28 28 33 25 25 16 7 8 7 8 7 14 20 17 12 9 20 13 9 10 11 10 5 1 4 6 3 5 11 4 3 5 9 7 8 17 6 5 5 5 4 3 13
28 28 30 30 29 27 24 6 12 9 6 3 10 16 16 16 16 12 21 15 11 4 9 10 7 10 5 6 8 11 11 6 9 7 3 7 8 6 8 19 21 18 14 9 12
28 29 30 34 29 26 16 13 7 4 8 11 16 18 8 12 10 12 14 23 15 8 7 8 5 3 4 4 9 11 11 5 4 3 3 5 7 7 5 5 7 4 6 13 17
22 23 31 36 32 30 8 19 5 4 9 11 10 12 10 20 8 12 15 16 14 11 2 6 3 2 5 3 2 8 8 4 1 4 4 4 4 5 1 5 2 3 9 9 14
20 13 31 31 33 18 10 4 4 11 4 6 3 6 8 17 12 21 22 4 22 20 8 6 4 1 8 9 11 2 4 3 3 5 6 2 5 6 9 6 6 2 3 14 21
25 7 17 30 11 3 6 7 6 4 15 6 4 2 9 22 13 14 14 9 27 19 24 5 3 4 6 2 2 11 11 10 7 5 4 8 8 1 7 6 4 2 13 22 27
14 15 21 39 10 5 1 3 5 10 4 5 3 6 3 13 4 4 5 10 23 17 21 10 5 4 3 1 4 4 4 9 4 1 10 7 6 4 4 3 5 8 21 27 25
14 4 10 25 13 11 6 4 4 11 10 11 7 6 3 12 1 8 8 2 19 15 21 20 3 7 9 3 6 3 4 8 8 7 10 9 11 17 15 15 11 13 15 20 25
19 5 7 5 5 8 10 10 12 4 8 17 10 11 13 6 4 3 5 4 5 20 10 7 6 4 2 5 4 4 6 6 6 11 6 12 7 13 11 2 4 8 14 18 20
11 7 6 2 14 13 16 7 14 15 7 8 10 14 17 9 9 13 10 5 10 8 4 2 1 3 1 2 4 2 5 8 7 4 3 8 12 15 4 3 7 12 15 16 19
13 14 17 8 6 10 9 11 18 13 9 21 20 10 16 17 12 20 12 17 16 17 6 6 6 4 3 2 7 4 12 10 6 6 8 10 10 5 2 4 6 10 11 13 16
Wind_Direction
283 284 283 251 267 270 268 268 254 259 258 263 269 278 267 276 273 273 266 253 248 243 236 223 216 202 187 188 184 162 106 214 211 161 233 192 201 201 231 222 199 194 187 189 199
278 281 277 276 261 257 266 258 258 260 265 269 269 275 279 281 281 272 266 252 238 230 221 213 209 192 180 186 184 170 166 216 208 203 221 185 191 201 193 198 231 222 217 220 210
268 271 271 274 270 270 244 254 258 259 264 271 282 282 278 281 295 264 237 238 228 219 213 213 198 191 184 175 192 180 207 217 224 221 231 213 245 210 171 227 221 230 232 223 216
261 260 259 264 267 276 274 249 255 249 256 262 271 286 287 268 225 194 229 259 228 208 207 204 191 176 174 189 191 191 237 208 256 204 193 195 295 273 217 217 207 199 216 227 224
261 263 258 258 256 252 260 265 270 261 246 255 256 256 267 256 244 186 178 165 199 197 201 197 189 176 180 189 156 203 229 214 235 231 238 268 261 265 270 231 227 223 232 240 238
260 259 255 259 258 251 250 256 264 277 258 234 245 248 237 229 253 228 215 193 175 191 206 200 208 200 203 185 181 218 225 235 230 243 244 242 262 143 258 258 253 255 256 255 259
260 259 255 255 257 253 245 249 249 259 279 229 236 248 246 243 253 243 217 196 190 180 196 206 202 188 182 178 222 186 275 296 217 218 223 83 276 210 250 254 264 261 268 255 254
259 258 258 256 252 251 248 245 245 245 239 227 242 248 257 269 247 247 228 208 200 188 180 191 193 198 193 139 69 155 162 239 253 172 224 171 249 236 253 247 253 257 256 259 257
257 258 255 255 251 251 247 243 241 238 237 218 232 230 256 245 232 252 232 231 209 199 187 180 187 178 159 117 56 3 194 201 304 196 142 196 256 260 260 233 239 253 258 258 260
260 259 258 255 253 251 249 241 235 232 221 217 223 204 240 211 233 246 230 205 191 197 187 180 178 157 150 161 212 183 193 226 208 293 212 254 255 294 282 259 254 265 264 264 266
257 261 257 258 255 247 243 233 211 208 203 193 190 197 60 204 171 203 205 188 183 177 192 191 200 208 189 201 107 141 165 177 221 69 298 245 265 264 277 275 250 265 270 273 271
258 260 258 252 248 242 234 229 213 210 168 209 217 211 194 143 168 195 187 172 180 189 133 164 225 186 154 167 155 153 165 199 283 13 242 312 284 245 258 261 254 255 261 264 270
254 254 254 251 249 242 235 226 222 210 171 205 213 208 208 204 184 193 187 191 178 184 184 194 234 160 145 159 183 200 212 159 173 339 32 322 287 235 251 250 257 258 260 262 260
250 250 256 247 247 240 238 233 245 202 221 177 197 223 201 190 227 215 198 177 181 200 180 225 207 153 158 195 167 217 167 155 134 71 236 40 282 288 269 286 239 262 253 256 261
246 246 245 238 235 218 235 229 228 197 254 166 162 184 192 183 138 197 198 186 171 172 160 204 171 150 182 189 165 206 150 171 158 176 25 223 291 277 274 280 269 265 266 267 277
243 239 239 235 238 236 180 197 186 201 224 171 140 168 154 195 149 142 164 177 176 156 197 162 142 169 176 146 164 134 95 75 79 110 240 216 196 234 195 205 256 105 173 79 47
243 238 235 231 233 234 236 184 204 214 127 153 175 171 173 182 173 164 183 174 167 172 194 189 186 195 140 110 142 155 145 128 173 190 231 173 170 250 254 247 232 251 218 346 346
240 236 234 228 225 222 223 229 228 212 176 163 150 157 183 160 196 166 178 192 208 140 156 176 188 172 193 188 175 183 180 166 183 188 213 151 215 246 225 237 241 267 288 342 16
239 239 235 220 216 212 205 230 214 198 147 151 141 166 170 180 170 174 189 201 189 181 145 170 235 106 149 153 147 186 212 160 103 52 104 202 280 298 247 262 243 261 59 28 27
229 234 236 215 209 204 218 231 202 245 130 189 154 177 168 178 155 172 174 197 203 184 151 188 137 174 178 119 210 184 157 155 113 164 229 234 265 232 180 220 233 85 34 27 2
235 232 236 226 201 201 223 194 195 248 167 177 226 149 182 177 182 182 186 199 183 182 150 143 107 34 147 211 188 150 149 195 150 169 197 197 247 209 194 188 168 163 334 337 342
226 234 232 202 190 168 194 163 199 298 195 223 176 195 169 177 175 181 186 195 187 161 189 151 108 146 208 189 238 209 205 192 200 212 243 254 244 270 154 145 147 244 320 332 339
211 221 194 181 191 181 33 177 173 231 279 223 228 158 214 173 166 140 163 190 169 164 171 162 166 138 11 323 5 171 186 211 251 66 219 217 252 244 321 323 306 319 328 325 332
195 214 192 177 202 172 133 202 189 208 233 218 252 194 198 181 330 177 156 144 182 162 170 163 143 174 195 171 137 178 172 189 191 232 244 246 273 282 286 293 324 340 340 334 330
178 204 174 162 163 171 178 172 206 206 212 185 231 179 176 152 123 157 125 115 106 173 167 132 169 108 177 138 115 133 148 156 179 215 205 252 245 266 268 58 358 353 331 327 322
164 148 130 174 153 183 186 207 190 217 181 209 232 190 199 178 182 179 147 158 169 185 129 117 167 105 152 356 77 110 189 191 206 225 240 243 268 258 78 9 10 356 345 337 329
142 142 163 180 153 176 180 185 202 207 229 222 210 233 198 228 194 186 158 149 150 163 136 122 130 86 234 341 90 335 226 209 197 206 204 226 240 51 37 29 20 6 352 340 331